Location: ??????????
(54.8537°N, 38.8755°E)
Time: 22:30:41
(UTC+00:00)

Transit 2A Rocket - Pass Details

Date: 14 September 2024
Orbit: 582 x 908 km, 66.7° (Epoch: 09 October)

Event Time Altitude Azimuth Distance (km) Brightness Sun altitude
Exits shadow 00:21:38 17° 288° (WNW) 2,143 7.0 -20.9°
Maximum altitude 00:25:30 32° 341° (NNW) 1,516 6.7 -20.5°
Drops below altitude 10° 00:30:52 10° 43° (NE) 2,568 8.9 -19.9°
Sets 00:33:37 0° 54° (NE) 3,478 10.1 -19.6°
